Time,TemperatureF,DewpointF,PressureIn,WindDirection,WindDirectionDegrees,WindSpeedMPH,WindSpeedGustMPH,Humidity,HourlyPrecipIn,Conditions,Clouds,dailyrainin,SoftwareType,DateUTC
2013-02-03 00:08:00,25.4,23.0,30.05,ESE,113,1.0,2.0,89,0.00,,,0.00,weatherlink.com 1.10,2013-02-03 05:08:00,
2013-02-03 00:23:00,25.3,23.0,30.04,ESE,104,2.0,2.0,90,0.00,,,0.00,weatherlink.com 1.10,2013-02-03 05:23:00,
2013-02-03 00:38:00,25.2,23.0,30.03,ESE,105,1.0,3.0,90,0.00,,,0.00,weatherlink.com 1.10,2013-02-03 05:38:00,
2013-02-03 00:53:00,25.3,23.0,30.03,ESE,103,0.0,2.0,90,0.00,,,0.00,weatherlink.com 1.10,2013-02-03 05:53:00,
2013-02-03 01:08:00,25.2,23.0,30.02,ESE,106,0.0,2.0,90,0.00,,,0.00,weatherlink.com 1.10,2013-02-03 06:08:00,
2013-02-03 01:23:00,25.1,23.0,30.01,ESE,105,0.0,0.0,90,0.00,,,0.00,weatherlink.com 1.10,2013-02-03 06:23:00,
2013-02-03 01:38:00,25.1,23.0,30.00,ESE,105,0.0,0.0,91,0.00,,,0.00,weatherlink.com 1.10,2013-02-03 06:38:00,
2013-02-03 01:53:00,25.1,23.0,30.00,ESE,105,0.0,0.0,90,0.00,,,0.00,weatherlink.com 1.10,2013-02-03 06:53:00,
2013-02-03 02:08:00,25.0,23.0,30.00,ESE,106,0.0,0.0,91,0.00,,,0.00,weatherlink.com 1.10,2013-02-03 07:08:00,
2013-02-03 02:23:00,25.0,23.0,29.99,ESE,106,0.0,0.0,91,0.00,,,0.00,weatherlink.com 1.10,2013-02-03 07:23:00,
2013-02-03 02:38:00,24.8,23.0,29.99,ESE,106,0.0,0.0,91,0.00,,,0.00,weatherlink.com 1.10,2013-02-03 07:38:00,
2013-02-03 02:53:00,24.7,23.0,29.98,ENE,72,0.0,2.0,91,0.00,,,0.00,weatherlink.com 1.10,2013-02-03 07:53:00,
2013-02-03 03:08:00,24.7,23.0,29.98,ENE,77,1.0,3.0,91,0.00,,,0.00,weatherlink.com 1.10,2013-02-03 08:08:00,
2013-02-03 03:23:00,24.6,22.0,29.97,NE,37,0.0,2.0,91,0.00,,,0.00,weatherlink.com 1.10,2013-02-03 08:23:00,
2013-02-03 03:38:00,24.7,23.0,29.96,NE,38,0.0,0.0,91,0.00,,,0.00,weatherlink.com 1.10,2013-02-03 08:38:00,
2013-02-03 03:53:00,24.7,23.0,29.95,NE,42,0.0,1.0,91,0.00,,,0.00,weatherlink.com 1.10,2013-02-03 08:53:00,
2013-02-03 04:08:00,24.7,23.0,29.95,NE,52,0.0,2.0,91,0.00,,,0.00,weatherlink.com 1.10,2013-02-03 09:08:00,
2013-02-03 04:23:00,24.7,23.0,29.94,ENE,66,0.0,2.0,91,0.00,,,0.00,weatherlink.com 1.10,2013-02-03 09:23:00,
2013-02-03 04:38:00,24.8,23.0,29.94,ENE,67,0.0,2.0,91,0.00,,,0.00,weatherlink.com 1.10,2013-02-03 09:38:00,
2013-02-03 04:53:00,24.7,23.0,29.94,ENE,67,0.0,0.0,91,0.00,,,0.00,weatherlink.com 1.10,2013-02-03 09:53:00,
2013-02-03 05:08:00,24.8,23.0,29.94,ENE,67,0.0,0.0,91,0.00,,,0.00,weatherlink.com 1.10,2013-02-03 10:08:00,
2013-02-03 05:23:00,24.8,23.0,29.94,NE,45,0.0,0.0,91,0.00,,,0.00,weatherlink.com 1.10,2013-02-03 10:23:00,
2013-02-03 05:38:00,24.7,23.0,29.94,NE,46,0.0,0.0,91,0.00,,,0.00,weatherlink.com 1.10,2013-02-03 10:38:00,
2013-02-03 05:53:00,24.7,23.0,29.95,NE,45,0.0,0.0,91,0.00,,,0.00,weatherlink.com 1.10,2013-02-03 10:53:00,
2013-02-03 06:08:00,24.7,23.0,29.95,ENE,69,1.0,1.0,91,0.00,,,0.00,weatherlink.com 1.10,2013-02-03 11:08:00,
2013-02-03 06:23:00,24.6,22.0,29.95,ENE,69,0.0,1.0,91,0.00,,,0.00,weatherlink.com 1.10,2013-02-03 11:23:00,
2013-02-03 06:38:00,24.6,22.0,29.95,ENE,69,0.0,0.0,91,0.00,,,0.00,weatherlink.com 1.10,2013-02-03 11:38:00,
2013-02-03 06:53:00,24.5,22.0,29.95,ENE,69,0.0,2.0,91,0.00,,,0.00,weatherlink.com 1.10,2013-02-03 11:53:00,
2013-02-03 07:08:00,24.5,22.0,29.95,ENE,68,0.0,1.0,91,0.00,,,0.00,weatherlink.com 1.10,2013-02-03 12:08:00,
2013-02-03 07:23:00,24.5,22.0,29.95,East,82,0.0,3.0,91,0.00,,,0.00,weatherlink.com 1.10,2013-02-03 12:23:00,
2013-02-03 07:38:00,24.5,22.0,29.96,East,89,0.0,5.0,91,0.00,,,0.00,weatherlink.com 1.10,2013-02-03 12:38:00,
2013-02-03 07:53:00,24.4,22.0,29.96,East,80,1.0,5.0,91,0.00,,,0.00,weatherlink.com 1.10,2013-02-03 12:53:00,
2013-02-03 08:08:00,24.3,22.0,29.96,NE,39,1.0,7.0,90,0.00,,,0.00,weatherlink.com 1.10,2013-02-03 13:08:00,
2013-02-03 08:24:00,24.3,22.0,29.96,NE,49,1.0,7.0,90,0.00,,,0.00,weatherlink.com 1.10,2013-02-03 13:24:00,
2013-02-03 08:39:00,24.6,22.0,29.96,ENE,76,0.0,5.0,90,0.00,,,0.00,weatherlink.com 1.10,2013-02-03 13:39:00,
2013-02-03 08:54:00,24.8,22.0,29.96,ENE,77,1.0,5.0,88,0.00,,,0.00,weatherlink.com 1.10,2013-02-03 13:54:00,
2013-02-03 09:09:00,25.2,22.0,29.95,NNW,331,1.0,6.0,86,0.00,,,0.00,weatherlink.com 1.10,2013-02-03 14:09:00,
2013-02-03 09:24:00,25.3,21.0,29.95,NE,48,5.0,7.0,84,0.00,,,0.00,weatherlink.com 1.10,2013-02-03 14:24:00,
2013-02-03 09:39:00,25.9,21.0,29.95,ENE,62,2.0,7.0,82,0.00,,,0.00,weatherlink.com 1.10,2013-02-03 14:39:00,
2013-02-03 09:54:00,26.0,21.0,29.95,NE,38,3.0,5.0,82,0.00,,,0.00,weatherlink.com 1.10,2013-02-03 14:54:00,
2013-02-03 10:09:00,26.3,22.0,29.94,NW,314,2.0,3.0,82,0.00,,,0.00,weatherlink.com 1.10,2013-02-03 15:09:00,
2013-02-03 10:24:00,27.8,23.0,29.94,NE,34,0.0,3.0,82,0.00,,,0.00,weatherlink.com 1.10,2013-02-03 15:24:00,
2013-02-03 10:39:00,27.4,21.0,29.93,ENE,67,2.0,4.0,78,0.00,,,0.00,weatherlink.com 1.10,2013-02-03 15:39:00,
2013-02-03 10:54:00,28.6,23.0,29.92,WNW,285,0.0,4.0,80,0.01,,,0.01,weatherlink.com 1.10,2013-02-03 15:54:00,
2013-02-03 11:09:00,29.1,23.0,29.91,North,5,0.0,4.0,79,0.01,,,0.01,weatherlink.com 1.10,2013-02-03 16:09:00,
2013-02-03 11:24:00,29.1,23.0,29.91,WNW,282,0.0,5.0,79,0.01,,,0.01,weatherlink.com 1.10,2013-02-03 16:24:00,
2013-02-03 11:39:00,29.9,24.0,29.89,NW,319,0.0,2.0,78,0.01,,,0.01,weatherlink.com 1.10,2013-02-03 16:39:00,
2013-02-03 11:54:00,29.6,23.0,29.88,NNW,342,1.0,4.0,76,0.00,,,0.01,weatherlink.com 1.10,2013-02-03 16:54:00,
2013-02-03 12:09:00,29.8,22.0,29.88,North,351,0.0,5.0,74,0.01,,,0.02,weatherlink.com 1.10,2013-02-03 17:09:00,
2013-02-03 12:24:00,30.8,23.0,29.87,West,272,0.0,4.0,72,0.01,,,0.02,weatherlink.com 1.10,2013-02-03 17:24:00,
2013-02-03 12:39:00,30.9,23.0,29.86,NW,315,3.0,4.0,72,0.01,,,0.02,weatherlink.com 1.10,2013-02-03 17:39:00,
2013-02-03 12:54:00,29.9,23.0,29.86,NW,315,7.0,9.0,74,0.01,,,0.02,weatherlink.com 1.10,2013-02-03 17:54:00,
2013-02-03 13:09:00,29.9,22.0,29.86,West,271,5.0,8.0,73,0.00,,,0.02,weatherlink.com 1.10,2013-02-03 18:09:00,
2013-02-03 13:24:00,30.2,22.0,29.85,West,271,5.0,10.0,72,0.00,,,0.02,weatherlink.com 1.10,2013-02-03 18:24:00,
2013-02-03 13:39:00,31.0,22.0,29.84,NW,319,4.0,6.0,70,0.00,,,0.02,weatherlink.com 1.10,2013-02-03 18:39:00,
2013-02-03 13:54:00,31.0,23.0,29.84,NNW,335,4.0,7.0,72,0.00,,,0.02,weatherlink.com 1.10,2013-02-03 18:54:00,
2013-02-03 14:09:00,31.3,23.0,29.84,NNW,339,5.0,9.0,71,0.00,,,0.02,weatherlink.com 1.10,2013-02-03 19:09:00,
2013-02-03 14:24:00,31.4,22.0,29.83,West,281,0.0,8.0,68,0.00,,,0.02,weatherlink.com 1.10,2013-02-03 19:24:00,
2013-02-03 14:39:00,31.6,21.0,29.83,NW,311,2.0,9.0,66,0.00,,,0.02,weatherlink.com 1.10,2013-02-03 19:39:00,
2013-02-03 14:54:00,31.7,22.0,29.82,NW,305,3.0,9.0,67,0.00,,,0.02,weatherlink.com 1.10,2013-02-03 19:54:00,
2013-02-03 15:09:00,31.9,22.0,29.83,WNW,290,10.0,10.0,66,0.00,,,0.02,weatherlink.com 1.10,2013-02-03 20:09:00,
2013-02-03 15:24:00,31.4,22.0,29.82,West,271,3.0,8.0,67,0.00,,,0.02,weatherlink.com 1.10,2013-02-03 20:24:00,
2013-02-03 15:39:00,32.0,21.0,29.82,North,360,1.0,10.0,64,0.00,,,0.02,weatherlink.com 1.10,2013-02-03 20:39:00,
2013-02-03 15:54:00,31.8,21.0,29.82,West,271,4.0,8.0,64,0.00,,,0.02,weatherlink.com 1.10,2013-02-03 20:54:00,
2013-02-03 16:09:00,31.8,21.0,29.82,West,267,4.0,8.0,64,0.00,,,0.02,weatherlink.com 1.10,2013-02-03 21:09:00,
2013-02-03 16:24:00,30.9,21.0,29.82,NW,317,2.0,6.0,67,0.00,,,0.02,weatherlink.com 1.10,2013-02-03 21:24:00,
2013-02-03 16:39:00,30.7,21.0,29.82,WNW,286,2.0,5.0,67,0.00,,,0.02,weatherlink.com 1.10,2013-02-03 21:39:00,
2013-02-03 16:54:00,30.7,21.0,29.83,NW,306,2.0,5.0,66,0.00,,,0.02,weatherlink.com 1.10,2013-02-03 21:54:00,
2013-02-03 17:09:00,30.5,20.0,29.83,WNW,302,1.0,5.0,66,0.00,,,0.02,weatherlink.com 1.10,2013-02-03 22:09:00,
2013-02-03 17:24:00,30.3,20.0,29.82,West,279,0.0,3.0,67,0.00,,,0.02,weatherlink.com 1.10,2013-02-03 22:24:00,
2013-02-03 17:39:00,29.9,21.0,29.83,WNW,297,0.0,0.0,69,0.00,,,0.02,weatherlink.com 1.10,2013-02-03 22:39:00,
2013-02-03 17:54:00,29.2,21.0,29.83,WNW,297,0.0,0.0,71,0.00,,,0.02,weatherlink.com 1.10,2013-02-03 22:54:00,
2013-02-03 18:09:00,28.5,21.0,29.83,WNW,297,0.0,0.0,72,0.00,,,0.02,weatherlink.com 1.10,2013-02-03 23:09:00,
2013-02-03 18:25:00,27.9,21.0,29.83,WNW,297,0.0,0.0,74,0.00,,,0.02,weatherlink.com 1.10,2013-02-03 23:25:00,
2013-02-03 18:40:00,27.5,21.0,29.83,WNW,297,0.0,0.0,75,0.00,,,0.02,weatherlink.com 1.10,2013-02-03 23:40:00,
2013-02-03 18:55:00,26.9,21.0,29.84,WNW,297,0.0,0.0,77,0.00,,,0.02,weatherlink.com 1.10,2013-02-03 23:55:00,
2013-02-03 19:10:00,26.6,21.0,29.84,WNW,297,0.0,0.0,78,0.00,,,0.02,weatherlink.com 1.10,2013-02-04 00:10:00,
2013-02-03 19:25:00,26.1,20.0,29.84,WNW,297,0.0,0.0,78,0.00,,,0.02,weatherlink.com 1.10,2013-02-04 00:25:00,
2013-02-03 19:40:00,25.9,21.0,29.84,WNW,297,0.0,0.0,80,0.00,,,0.02,weatherlink.com 1.10,2013-02-04 00:40:00,
2013-02-03 19:55:00,25.3,20.0,29.84,WNW,297,0.0,0.0,81,0.00,,,0.02,weatherlink.com 1.10,2013-02-04 00:55:00,
2013-02-03 20:10:00,24.8,20.0,29.84,WNW,297,0.0,0.0,82,0.00,,,0.02,weatherlink.com 1.10,2013-02-04 01:10:00,
2013-02-03 20:25:00,24.7,21.0,29.84,WNW,297,0.0,0.0,84,0.00,,,0.02,weatherlink.com 1.10,2013-02-04 01:25:00,
2013-02-03 20:40:00,24.5,20.0,29.84,WNW,297,0.0,0.0,84,0.00,,,0.02,weatherlink.com 1.10,2013-02-04 01:40:00,
2013-02-03 20:55:00,24.8,21.0,29.84,WNW,297,0.0,0.0,85,0.00,,,0.02,weatherlink.com 1.10,2013-02-04 01:55:00,
2013-02-03 21:10:00,25.3,21.0,29.85,WNW,296,0.0,1.0,85,0.00,,,0.02,weatherlink.com 1.10,2013-02-04 02:10:00,
2013-02-03 21:25:00,26.3,22.0,29.85,West,268,0.0,0.0,82,0.00,,,0.02,weatherlink.com 1.10,2013-02-04 02:25:00,
2013-02-03 21:40:00,26.5,22.0,29.85,West,268,0.0,0.0,83,0.00,,,0.02,weatherlink.com 1.10,2013-02-04 02:40:00,
2013-02-03 21:55:00,26.8,22.0,29.84,SSW,205,0.0,2.0,83,0.00,,,0.02,weatherlink.com 1.10,2013-02-04 02:55:00,
2013-02-03 22:10:00,27.9,23.0,29.85,SW,219,3.0,4.0,80,0.00,,,0.02,weatherlink.com 1.10,2013-02-04 03:10:00,
2013-02-03 22:25:00,28.7,23.0,29.84,SW,236,0.0,4.0,78,0.00,,,0.02,weatherlink.com 1.10,2013-02-04 03:25:00,
2013-02-03 22:40:00,28.9,23.0,29.84,SW,217,3.0,6.0,79,0.00,,,0.02,weatherlink.com 1.10,2013-02-04 03:40:00,
2013-02-03 22:55:00,29.0,24.0,29.84,SW,227,2.0,4.0,81,0.00,,,0.02,weatherlink.com 1.10,2013-02-04 03:55:00,
2013-02-03 23:10:00,29.0,25.0,29.85,West,261,0.0,7.0,83,0.00,,,0.02,weatherlink.com 1.10,2013-02-04 04:10:00,
2013-02-03 23:25:00,28.4,26.0,29.86,WNW,290,5.0,7.0,89,0.00,,,0.02,weatherlink.com 1.10,2013-02-04 04:25:00,
2013-02-03 23:40:00,28.7,26.0,29.87,WNW,303,6.0,15.0,90,0.00,,,0.02,weatherlink.com 1.10,2013-02-04 04:40:00,
2013-02-03 23:55:00,28.0,26.0,29.87,WNW,286,9.0,14.0,91,0.00,,,0.02,weatherlink.com 1.10,2013-02-04 04:55:00,